Weather History for New River MCAS, NC

Change the Weather History Date:

Monday, January 7, 2013

  Actual Average Record
Temperature  
Mean Temperature 46 °F -  
Max Temperature 55 °F 55 °F 73 °F (1998)
Min Temperature 37 °F 34 °F 16 °F (2014)
Degree Days  
Heating Degree Days 19    
Moisture  
Dew Point 34 °F    
Average Humidity 65    
Maximum Humidity 87    
Minimum Humidity 38    
Precipitation  
Precipitation 0.00 in - - ()
Sea Level Pressure  
Sea Level Pressure 30.35 in    
Wind  
Wind Speed 8 mph (NNE)    
Max Wind Speed 13 mph    
Max Gust Speed -    
Visibility 10 miles    
Events      
Averages and records for this station are not official NWS values.
T = Trace of Precipitation, MM = Missing Value Source: NWS Daily Summary

Daily Weather History Graph

Daily Weather History Graph

Search for Another Location

Airport:

Trip Planner

Search our weather history database for the weather conditions in past years. The results will help you decide how hot, cold, wet, or windy it might be!

Date:

Astronomy

Jan. 07, 2013 Rise Set
Actual Time 7:17 AM EST 5:15 PM EST
Civil Twilight 6:49 AM EST 5:42 PM EST
Nautical Twilight 6:18 AM EST 6:14 PM EST
Astronomical Twilight 5:48 AM EST 6:44 PM EST
Moon 2:41 AM EST (1/7) 1:22 PM EST (1/7)
Length of Visible Light 10h 52m
Length of Day
9h 57m
Waning Crescent, 23% of the Moon is Illuminated
Jan 7
Waning Crescent
Jan 11
New
Jan 18
First Quarter
Jan 26
Full
Feb 3
Last Quarter

Hourly Weather History & Observations

Time (EST) Temp. Windchill Dew Point Humidity Pressure Visibility Wind Dir Wind Speed Gust Speed Precip Events Conditions
12:02 AM 46.4 °F 42.4 °F 42.8 °F 87% 30.16 in 10.0 mi NW 8.1 mph - N/A   Overcast
12:56 AM 46.0 °F 41.9 °F 41.0 °F 83% 30.17 in 9.0 mi NW 8.1 mph - N/A   Overcast
1:56 AM 44.1 °F 39.0 °F 39.9 °F 85% 30.20 in 7.0 mi NNW 9.2 mph - N/A   Mostly Cloudy
2:56 AM 42.1 °F 37.1 °F 37.9 °F 85% 30.21 in 8.0 mi NNW 8.1 mph - N/A   Clear
3:06 AM - - - N/A% - - North - - N/A   Unknown
3:56 AM 41.0 °F 36.4 °F 36.0 °F 82% 30.22 in 8.0 mi NW 6.9 mph - N/A   Clear
4:56 AM 39.9 °F 36.7 °F 35.1 °F 83% 30.23 in 10.0 mi NNW 4.6 mph - N/A   Clear
5:56 AM 39.0 °F 35.7 °F 34.0 °F 82% 30.26 in 10.0 mi North 4.6 mph - N/A   Clear
6:56 AM 37.0 °F 31.6 °F 33.1 °F 86% 30.30 in 10.0 mi NNW 6.9 mph - N/A   Clear
7:56 AM 37.9 °F 32.7 °F 32.0 °F 79% 30.33 in 10.0 mi NNW 6.9 mph - N/A   Clear
8:56 AM 44.1 °F 38.6 °F 33.1 °F 65% 30.37 in 10.0 mi North 10.4 mph - N/A   Partly Cloudy
9:56 AM 48.0 °F - 33.1 °F 56% 30.40 in 10.0 mi NNE 11.5 mph - N/A   Clear
10:56 AM 51.1 °F - 32.0 °F 48% 30.40 in 10.0 mi NE 12.7 mph - N/A   Clear
11:56 AM 54.0 °F - 30.9 °F 41% 30.39 in 10.0 mi NE 11.5 mph - N/A   Clear
12:56 PM 55.0 °F - 30.0 °F 38% 30.37 in 10.0 mi ENE 10.4 mph - N/A   Clear
1:56 PM 55.0 °F - 30.0 °F 38% 30.38 in 10.0 mi NE 11.5 mph - N/A   Clear
2:56 PM 55.0 °F - 30.0 °F 38% 30.40 in 10.0 mi NE 5.8 mph - N/A   Clear
3:56 PM 54.0 °F - 30.9 °F 41% 30.41 in 10.0 mi NNE 9.2 mph - N/A   Clear
4:56 PM 51.1 °F - 30.9 °F 46% 30.41 in 10.0 mi ENE 6.9 mph - N/A   Clear
5:56 PM 46.9 °F - 30.9 °F 54% 30.43 in 10.0 mi ENE 5.8 mph - N/A   Clear
6:56 PM 45.0 °F 41.2 °F 33.1 °F 63% 30.45 in 10.0 mi East 6.9 mph - N/A   Clear
7:56 PM 44.1 °F 39.0 °F 34.0 °F 68% 30.46 in 10.0 mi East 9.2 mph - N/A   Clear
8:56 PM 44.1 °F 39.0 °F 33.1 °F 65% 30.46 in 10.0 mi East 9.2 mph - N/A   Clear
9:56 PM 42.1 °F 36.6 °F 33.1 °F 70% 30.46 in 10.0 mi East 9.2 mph - N/A   Clear
10:56 PM 41.0 °F 35.8 °F 33.1 °F 73% 30.44 in 10.0 mi ENE 8.1 mph - N/A   Clear
11:56 PM 41.0 °F 36.4 °F 34.0 °F 76% 30.42 in 10.0 mi NE 6.9 mph - N/A   Clear